Regional Weather Roundup
Issued by NWS Burlington, VT

Home | Current Version | Previous Version | Text Only | Print | Product List | Glossary On
Versions: 1 2 3 4 5 6 7 8 9 10 11 12 13 14 15 16 17 18 19 20 21 22 23 24 25 26 27 28 29 30 31 32 33 34 35 36 37 38 39 40 41 42 43 44 45 46 47 48 49 50
698
ASUS41 KBTV 272330
RWRBTV
VERMONT REGIONAL WEATHER ROUNDUP
NATIONAL WEATHER SERVICE BURLINGTON VT
700 PM EDT TUE JUN 27 2017

NOTE: "FAIR" INDICATES FEW OR NO CLOUDS BELOW 12,000 FEET WITH NO
SIGNIFICANT WEATHER AND/OR OBSTRUCTIONS TO VISIBILITY.

* THESE REPORTS ARE NOT UNDER NWS QUALITY CONTROL AND/OR DO NOT
  REPORT WEATHER SUCH AS PRECIPITATION AND FOG.

VTZ001>019-280000-
_____VERMONT_____


CITY           SKY/WX    TMP DP  RH WIND       PRES   REMARKS
BURLINGTON     TSTM      59  56  89 CALM      29.90S
MONTPELIER     TSTM      53  50  89 W14G28    29.95R
MORRISVILLE    TSTM      58  53  84 VRB6      29.91R VSB 3/4
ST. JOHNSBURY*   N/A     61  57  87 MISG      29.86F
LYNDONVILLE*   PTSUNNY   60  51  72 NW5       29.91S
MIDDLEBURY*    LGT RAIN  56  53  92 CALM      29.92F
RUTLAND*       CLOUDY    56  51  84 S6        29.93F
SPRINGFIELD    LGT RAIN  59  52  77 CALM      29.92R
HIGHGATE*      LGT RAIN  58  56  92 CALM      29.88S
NEWPORT*       FAIR      60  51  73 CALM      29.90S
BENNINGTON     PTSUNNY   58  53  84 CALM      29.96S
SUTTON*          N/A     57 N/A N/A MISG        N/A
MT. MANSFIELD*   N/A     45 N/A N/A W25         N/A

_____LAKE CHAMPLAIN_____


CITY           SKY/WX    TMP DP  RH WIND       PRES   REMARKS
BURTON ISLAND*   N/A     61  55  82 S6          N/A
COLCHESTER RF*   N/A     59  54  82 W7          N/A
DIAMOND ISL*     N/A     57  54  88 E8G15       N/A

$$

NYZ007-026>031-035-052-083-087-280000-
_____NORTHERN NEW YORK_____


CITY           SKY/WX    TMP DP  RH WIND       PRES   REMARKS
PLATTSBURGH    PTSUNNY   60  54  80 CALM      29.88S
SARANAC LAKE   LGT RAIN  54  52  93 SW7       29.90R FOG
MASSENA        MOSUNNY   64  52  64 W10       29.88R
OGDENSBURG*    FAIR      63  54  71 SW9       29.89S
POTSDAM*       CLOUDY    61  57  88 W8        29.90R
WATERTOWN      CLOUDY    62  53  72 SW9       29.92S
FT DRUM        MOSUNNY   61  51  71 SW14      29.92R
ALBANY         MOSUNNY   64  50  60 NW9       29.95R
GLENS FALLS    MOSUNNY   58  53  84 SE6       29.93R

$$
NHZ002-005-011-280000-
_____NEW HAMPSHIRE_____


CITY           SKY/WX    TMP DP  RH WIND       PRES   REMARKS
LEBANON        CLOUDY    64  47  53 SW7       29.90R
KEENE          MOSUNNY   61  57  87 NW5       29.92R
MT WASHINGTON  LGT RAIN  41  41 100 W18G31      N/A  VSB 0
PLYMOUTH       PTSUNNY   65  57  76 SE3       29.88S
WHITEFIELD     PTSUNNY   63  49  60 NW5       29.90R

$$

_____REGIONAL QUEBEC LOCATIONS_____


CITY           SKY/WX    TMP DP  RH WIND       PRES   REMARKS
MONTREAL       MOSUNNY   64  54  68 S10       29.86S
QUEBEC CITY    LGT RAIN  57  54  88 SW7       29.88R
SHERBROOKE     MOSUNNY   59  52  77 SE3       29.89S

_____REGIONAL ONTARIO LOCATIONS_____


CITY           SKY/WX    TMP DP  RH WIND       PRES   REMARKS
OTTAWA         PTSUNNY   59  54  82 S5        29.88R

______KEY______
VSB  - VISIBILITY IN MILES
WCI  - WIND CHILL INDEX
HX   - HEAT INDEX
$$
NNNN




USA.gov is the U.S. government's official web portal to all federal, state and local government web resources and services.